Location: ????
(32.1228°N, 34.8377°E)
Time: 16:31:34
(UTC+00:00)

PAYLOAD A - Pass Details

Date: 21 September 2020
Orbit: 691 x 832 km, 98.3° (Epoch: 25 October)

Event Time Altitude Azimuth Distance (km) Brightness Sun altitude
Rises 01:22:13 0° 14° (NNE) 3,070 7.6 -27.0°
Reaches altitude 10° 01:24:28 10° 16° (NNE) 2,148 6.7 -26.6°
Maximum altitude 01:29:09 76° 103° (ESE) 718 3.8 -25.6°
Enters shadow 01:29:50 62° 163° (SSE) 779 3.9 -25.5°
